TimeCDT,TemperatureF,Dew PointF,Humidity,Sea Level PressureIn,VisibilityMPH,Wind Direction,Wind SpeedMPH,Gust SpeedMPH,PrecipitationIn,Events,Conditions,WindDirDegrees,DateUTC
12:53 AM,50.0,21.0,32,30.40,10.0,North,12.7,-,N/A,,Partly Cloudy,360,2013-03-26 05:53:00
1:53 AM,48.9,21.0,33,30.41,10.0,North,13.8,-,N/A,,Partly Cloudy,10,2013-03-26 06:53:00
2:53 AM,46.9,21.0,36,30.41,10.0,North,10.4,-,N/A,,Partly Cloudy,10,2013-03-26 07:53:00
3:53 AM,46.9,19.9,34,30.40,10.0,North,10.4,-,N/A,,Partly Cloudy,10,2013-03-26 08:53:00
4:53 AM,43.0,23.0,45,30.41,10.0,NE,6.9,-,N/A,,Partly Cloudy,50,2013-03-26 09:53:00
5:53 AM,43.0,21.0,42,30.42,10.0,NE,8.1,-,N/A,,Partly Cloudy,40,2013-03-26 10:53:00
6:53 AM,43.0,19.9,40,30.44,10.0,NE,10.4,-,N/A,,Partly Cloudy,50,2013-03-26 11:53:00
7:53 AM,43.0,21.0,42,30.47,10.0,NE,6.9,-,N/A,,Clear,40,2013-03-26 12:53:00
8:53 AM,46.9,24.1,41,30.49,10.0,ENE,6.9,-,N/A,,Clear,70,2013-03-26 13:53:00
9:53 AM,51.1,21.9,32,30.51,10.0,NE,9.2,-,N/A,,Clear,50,2013-03-26 14:53:00
10:53 AM,54.0,19.0,25,30.50,10.0,NNE,11.5,-,N/A,,Clear,30,2013-03-26 15:53:00
11:53 AM,55.9,19.9,25,30.49,10.0,NNE,11.5,18.4,N/A,,Clear,30,2013-03-26 16:53:00
12:53 PM,59.0,19.9,22,30.46,10.0,North,10.4,-,N/A,,Clear,350,2013-03-26 17:53:00
1:53 PM,60.1,19.0,20,30.43,10.0,NNW,11.5,-,N/A,,Clear,340,2013-03-26 18:53:00
2:53 PM,61.0,19.0,20,30.40,10.0,Variable,5.8,-,N/A,,Clear,0,2013-03-26 19:53:00
3:53 PM,63.0,17.1,17,30.38,10.0,North,10.4,24.2,N/A,,Clear,350,2013-03-26 20:53:00
4:53 PM,62.1,18.0,18,30.35,10.0,North,12.7,17.3,N/A,,Partly Cloudy,360,2013-03-26 21:53:00
5:53 PM,63.0,17.1,17,30.34,10.0,NNW,11.5,-,N/A,,Scattered Clouds,340,2013-03-26 22:53:00
6:53 PM,61.0,17.1,18,30.34,10.0,North,11.5,-,N/A,,Partly Cloudy,360,2013-03-26 23:53:00
7:53 PM,57.0,18.0,22,30.35,10.0,North,8.1,-,N/A,,Partly Cloudy,350,2013-03-27 00:53:00
8:53 PM,55.0,19.9,25,30.36,10.0,North,5.8,-,N/A,,Partly Cloudy,360,2013-03-27 01:53:00
9:53 PM,52.0,21.9,31,30.37,10.0,NE,6.9,-,N/A,,Clear,40,2013-03-27 02:53:00
10:53 PM,52.0,24.1,34,30.38,10.0,ESE,4.6,-,N/A,,Partly Cloudy,110,2013-03-27 03:53:00
11:53 PM,48.9,25.0,39,30.38,10.0,Calm,Calm,-,N/A,,Clear,0,2013-03-27 04:53:00